Location: Vulcan
(50.4000°N, 113.2500°W)
Time: 13:22:02
(UTC-06:00)

N. Korean satellite - Visible Passes

Search period start: 18 March 2019 00:00
Search period end: 28 March 2019 00:00
Orbit: 455 x 511 km, 97.2° (Epoch: 18 March)

Date Brightness Start Highest point End Pass type
(mag) Time Alt. Az. Time Alt. Az. Time Alt. Az.
18 Mar 10.2 06:38:34 10° ENE 06:39:53 12° E 06:41:13 10° ESE visible
21 Mar 9.8 06:56:29 10° NE 06:59:03 19° E 07:01:38 10° SE visible
22 Mar 10.5 06:33:24 10° ENE 06:34:00 10° E 06:34:35 10° E visible
25 Mar 9.9 06:50:46 10° NE 06:53:08 17° E 06:55:32 10° SE visible
